Time,TemperatureF,DewpointF,PressureIn,WindDirection,WindDirectionDegrees,WindSpeedMPH,WindSpeedGustMPH,Humidity,HourlyPrecipIn,Conditions,Clouds,dailyrainin,SoftwareType,DateUTC
2013-01-23 00:04:00,45.1,35.6,30.07,NNE,30,3.0,4.0,69,0.00,,,0.00,meteohub,2013-01-23 08:04:00,
2013-01-23 00:09:00,45.1,35.6,30.07,NNE,30,4.0,5.0,69,0.00,,,0.00,meteohub,2013-01-23 08:09:00,
2013-01-23 00:14:00,45.0,35.4,30.06,NNE,30,3.0,5.0,69,0.00,,,0.00,meteohub,2013-01-23 08:14:00,
2013-01-23 00:19:00,44.6,36.1,30.06,NNE,30,3.0,5.0,72,0.00,,,0.00,meteohub,2013-01-23 08:19:00,
2013-01-23 00:24:00,44.2,36.1,30.06,NNE,30,3.0,5.0,73,0.00,,,0.00,meteohub,2013-01-23 08:24:00,
2013-01-23 00:29:00,44.4,36.3,30.06,NNE,30,3.0,5.0,73,0.00,,,0.00,meteohub,2013-01-23 08:29:00,
2013-01-23 00:34:00,44.8,36.0,30.06,NNE,30,3.0,5.0,71,0.00,,,0.00,meteohub,2013-01-23 08:34:00,
2013-01-23 00:39:00,44.8,36.0,30.06,NNE,30,3.0,5.0,71,0.00,,,0.00,meteohub,2013-01-23 08:39:00,
2013-01-23 00:44:00,45.0,36.1,30.06,NE,38,3.0,4.0,71,0.00,,,0.00,meteohub,2013-01-23 08:44:00,
2013-01-23 00:49:00,45.0,36.1,30.06,NE,38,2.0,4.0,71,0.00,,,0.00,meteohub,2013-01-23 08:49:00,
2013-01-23 00:54:00,45.1,35.6,30.06,NE,38,2.0,4.0,69,0.00,,,0.00,meteohub,2013-01-23 08:54:00,
2013-01-23 00:59:00,45.3,35.4,30.06,NE,38,1.0,4.0,68,0.00,,,0.00,meteohub,2013-01-23 08:59:00,
2013-01-23 01:04:00,45.5,35.6,30.05,NE,38,2.0,4.0,68,0.00,,,0.00,meteohub,2013-01-23 09:04:00,
2013-01-23 01:09:00,45.3,36.5,30.05,NE,38,1.0,4.0,71,0.00,,,0.00,meteohub,2013-01-23 09:09:00,
2013-01-23 01:14:00,45.3,36.9,30.06,NE,38,1.0,4.0,72,0.00,,,0.00,meteohub,2013-01-23 09:14:00,
2013-01-23 01:19:00,45.0,37.2,30.06,NE,38,0.0,3.0,74,0.00,,,0.00,meteohub,2013-01-23 09:19:00,
2013-01-23 01:24:00,44.8,37.4,30.06,NE,38,0.0,3.0,75,0.00,,,0.00,meteohub,2013-01-23 09:24:00,
2013-01-23 01:29:00,45.3,36.1,30.06,NE,38,2.0,3.0,70,0.00,,,0.00,meteohub,2013-01-23 09:29:00,
2013-01-23 01:34:00,45.9,36.7,30.06,NE,38,1.0,3.0,70,0.00,,,0.00,meteohub,2013-01-23 09:34:00,
2013-01-23 01:39:00,45.5,37.4,30.05,NE,38,0.0,3.0,73,0.00,,,0.00,meteohub,2013-01-23 09:39:00,
2013-01-23 01:44:00,45.0,37.2,30.05,NE,38,2.0,3.0,74,0.00,,,0.00,meteohub,2013-01-23 09:44:00,
2013-01-23 01:49:00,45.7,36.9,30.05,NE,38,0.0,3.0,71,0.00,,,0.00,meteohub,2013-01-23 09:49:00,
2013-01-23 01:54:00,45.3,36.9,30.05,NE,38,2.0,3.0,72,0.00,,,0.00,meteohub,2013-01-23 09:54:00,
2013-01-23 01:59:00,46.0,36.5,30.05,NE,38,3.0,4.0,69,0.00,,,0.00,meteohub,2013-01-23 09:59:00,
2013-01-23 02:04:00,46.0,36.5,30.05,NE,38,2.0,4.0,69,0.00,,,0.00,meteohub,2013-01-23 10:04:00,
2013-01-23 02:09:00,46.0,36.9,30.05,NE,38,3.0,4.0,70,0.00,,,0.00,meteohub,2013-01-23 10:09:00,
2013-01-23 02:14:00,46.2,36.3,30.05,NE,38,3.0,5.0,68,0.00,,,0.00,meteohub,2013-01-23 10:14:00,
2013-01-23 02:19:00,46.6,36.5,30.05,NE,38,3.0,5.0,68,0.00,,,0.00,meteohub,2013-01-23 10:19:00,
2013-01-23 02:24:00,46.4,37.6,30.04,NE,38,2.0,5.0,71,0.00,,,0.00,meteohub,2013-01-23 10:24:00,
2013-01-23 02:29:00,46.2,37.0,30.04,NE,38,3.0,4.0,70,0.00,,,0.00,meteohub,2013-01-23 10:29:00,
2013-01-23 02:34:00,46.2,36.7,30.04,NE,38,3.0,4.0,69,0.00,,,0.00,meteohub,2013-01-23 10:34:00,
2013-01-23 02:39:00,46.2,37.0,30.04,NE,38,3.0,4.0,70,0.00,,,0.00,meteohub,2013-01-23 10:39:00,
2013-01-23 02:44:00,46.2,37.0,30.04,NE,38,3.0,4.0,70,0.00,,,0.00,meteohub,2013-01-23 10:44:00,
2013-01-23 02:49:00,46.2,37.4,30.05,NE,38,3.0,4.0,71,0.00,,,0.00,meteohub,2013-01-23 10:49:00,
2013-01-23 02:54:00,46.0,37.2,30.04,NE,38,3.0,4.0,71,0.00,,,0.00,meteohub,2013-01-23 10:54:00,
2013-01-23 03:00:00,46.2,37.4,30.04,NE,38,3.0,4.0,71,0.00,,,0.00,meteohub,2013-01-23 11:00:00,
2013-01-23 03:05:00,46.0,37.9,30.04,NE,38,0.0,4.0,73,0.00,,,0.00,meteohub,2013-01-23 11:05:00,
2013-01-23 03:10:00,45.7,37.6,30.04,NE,38,2.0,4.0,73,0.00,,,0.00,meteohub,2013-01-23 11:10:00,
2013-01-23 03:15:00,45.5,37.0,30.03,NE,38,3.0,4.0,72,0.00,,,0.00,meteohub,2013-01-23 11:15:00,
2013-01-23 03:20:00,45.9,38.1,30.03,NE,38,3.0,4.0,74,0.00,,,0.00,meteohub,2013-01-23 11:20:00,
2013-01-23 03:25:00,45.9,37.4,30.03,NE,38,3.0,4.0,72,0.00,,,0.00,meteohub,2013-01-23 11:25:00,
2013-01-23 03:30:00,46.0,37.9,30.02,NE,38,3.0,4.0,73,0.00,,,0.00,meteohub,2013-01-23 11:30:00,
2013-01-23 03:35:00,46.0,37.9,30.01,NE,38,2.0,4.0,73,0.00,,,0.00,meteohub,2013-01-23 11:35:00,
2013-01-23 03:40:00,46.0,37.9,30.00,NE,38,3.0,5.0,73,0.00,,,0.00,meteohub,2013-01-23 11:40:00,
2013-01-23 03:45:00,45.9,37.8,30.00,NE,38,2.0,5.0,73,0.00,,,0.00,meteohub,2013-01-23 11:45:00,
2013-01-23 03:50:00,47.3,36.1,30.02,NE,38,0.0,5.0,65,0.00,,,0.00,meteohub,2013-01-23 11:50:00,
2013-01-23 03:55:00,48.4,37.9,30.02,WNW,294,3.0,5.0,67,0.00,,,0.00,meteohub,2013-01-23 11:55:00,
2013-01-23 04:00:00,47.5,36.3,30.03,WNW,294,0.0,4.0,65,0.00,,,0.00,meteohub,2013-01-23 12:00:00,
2013-01-23 04:05:00,48.4,35.1,30.03,WNW,294,0.0,4.0,60,0.00,,,0.00,meteohub,2013-01-23 12:05:00,
2013-01-23 04:10:00,48.9,36.5,30.01,WNW,296,3.0,4.0,62,0.00,,,0.00,meteohub,2013-01-23 12:10:00,
2013-01-23 04:15:00,48.0,36.0,30.02,WNW,301,2.0,4.0,63,0.00,,,0.00,meteohub,2013-01-23 12:15:00,
2013-01-23 04:20:00,47.5,37.0,30.02,NW,305,3.0,4.0,67,0.00,,,0.00,meteohub,2013-01-23 12:20:00,
2013-01-23 04:25:00,46.9,36.5,30.01,NW,305,2.0,4.0,67,0.00,,,0.00,meteohub,2013-01-23 12:25:00,
2013-01-23 04:30:00,46.8,37.2,30.01,NW,305,4.0,4.0,69,0.00,,,0.00,meteohub,2013-01-23 12:30:00,
2013-01-23 04:35:00,46.0,37.2,30.01,NW,305,2.0,4.0,71,0.00,,,0.00,meteohub,2013-01-23 12:35:00,
2013-01-23 04:40:00,45.9,37.8,30.01,NW,305,0.0,4.0,73,0.00,,,0.00,meteohub,2013-01-23 12:40:00,
2013-01-23 04:45:00,46.4,36.9,30.01,NW,305,2.0,4.0,69,0.00,,,0.00,meteohub,2013-01-23 12:45:00,
2013-01-23 04:50:00,46.6,36.5,30.00,NW,305,3.0,4.0,68,0.00,,,0.00,meteohub,2013-01-23 12:50:00,
2013-01-23 04:55:00,46.6,37.4,30.01,NW,305,0.0,3.0,70,0.00,,,0.00,meteohub,2013-01-23 12:55:00,
2013-01-23 05:00:00,46.0,37.2,30.00,NW,305,2.0,3.0,71,0.00,,,0.00,meteohub,2013-01-23 13:00:00,
2013-01-23 05:05:00,46.0,36.9,30.01,NW,305,3.0,3.0,70,0.00,,,0.00,meteohub,2013-01-23 13:05:00,
2013-01-23 05:10:00,46.2,36.3,30.01,NW,304,3.0,3.0,68,0.00,,,0.00,meteohub,2013-01-23 13:10:00,
2013-01-23 05:15:00,46.2,36.7,30.00,NW,305,3.0,5.0,69,0.00,,,0.00,meteohub,2013-01-23 13:15:00,
2013-01-23 05:20:00,46.0,37.2,30.00,NW,305,3.0,5.0,71,0.00,,,0.00,meteohub,2013-01-23 13:20:00,
2013-01-23 05:25:00,46.0,36.9,30.00,NW,305,3.0,5.0,70,0.00,,,0.00,meteohub,2013-01-23 13:25:00,
2013-01-23 05:30:00,45.9,37.0,29.99,NW,305,2.0,4.0,71,0.00,,,0.00,meteohub,2013-01-23 13:30:00,
2013-01-23 05:35:00,45.9,37.0,29.99,NW,305,2.0,4.0,71,0.00,,,0.00,meteohub,2013-01-23 13:35:00,
2013-01-23 05:40:00,46.0,36.9,30.00,NW,305,3.0,4.0,70,0.00,,,0.00,meteohub,2013-01-23 13:40:00,
2013-01-23 05:45:00,46.0,36.9,29.99,North,355,4.0,4.0,70,0.00,,,0.00,meteohub,2013-01-23 13:45:00,
2013-01-23 05:50:00,46.0,36.5,29.99,NE,46,4.0,5.0,69,0.00,,,0.00,meteohub,2013-01-23 13:50:00,
2013-01-23 05:55:00,46.4,36.0,30.00,NE,47,3.0,5.0,67,0.00,,,0.00,meteohub,2013-01-23 13:55:00,
2013-01-23 06:00:00,46.6,36.5,29.99,NE,47,3.0,5.0,68,0.00,,,0.00,meteohub,2013-01-23 14:00:00,
2013-01-23 06:05:00,46.6,36.5,30.00,NE,47,3.0,5.0,68,0.00,,,0.00,meteohub,2013-01-23 14:05:00,
2013-01-23 06:10:00,46.6,36.5,30.00,NE,47,4.0,4.0,68,0.00,,,0.00,meteohub,2013-01-23 14:10:00,
2013-01-23 06:15:00,46.6,37.4,30.00,NE,43,2.0,4.0,70,0.00,,,0.00,meteohub,2013-01-23 14:15:00,
2013-01-23 06:20:00,46.6,37.4,30.00,NE,43,1.0,4.0,70,0.00,,,0.00,meteohub,2013-01-23 14:20:00,
2013-01-23 06:25:00,46.9,37.6,30.00,NE,43,3.0,4.0,70,0.00,,,0.00,meteohub,2013-01-23 14:25:00,
2013-01-23 06:31:00,47.1,37.4,30.01,NE,43,3.0,4.0,69,0.00,,,0.00,meteohub,2013-01-23 14:31:00,
2013-01-23 06:36:00,47.5,36.7,30.01,NE,43,2.0,4.0,66,0.00,,,0.00,meteohub,2013-01-23 14:36:00,
2013-01-23 06:41:00,47.8,37.0,30.01,NE,43,2.0,4.0,66,0.00,,,0.00,meteohub,2013-01-23 14:41:00,
2013-01-23 06:46:00,48.0,36.9,30.01,NE,50,3.0,4.0,65,0.00,,,0.00,meteohub,2013-01-23 14:46:00,
2013-01-23 06:51:00,48.4,36.3,30.00,NE,50,3.0,4.0,63,0.00,,,0.00,meteohub,2013-01-23 14:51:00,
2013-01-23 06:56:00,48.4,37.2,30.00,NE,50,3.0,4.0,65,0.00,,,0.00,meteohub,2013-01-23 14:56:00,
2013-01-23 07:01:00,48.6,37.4,30.00,NE,50,2.0,4.0,65,0.00,,,0.00,meteohub,2013-01-23 15:01:00,
2013-01-23 07:06:00,48.0,38.3,30.00,NE,50,3.0,4.0,69,0.00,,,0.00,meteohub,2013-01-23 15:06:00,
2013-01-23 07:11:00,47.8,37.0,30.00,NE,50,2.0,4.0,66,0.00,,,0.00,meteohub,2013-01-23 15:11:00,
2013-01-23 07:16:00,48.2,37.0,30.00,NE,50,2.0,5.0,65,0.00,,,0.00,meteohub,2013-01-23 15:16:00,
2013-01-23 07:21:00,48.6,36.9,30.00,NE,50,1.0,5.0,64,0.00,,,0.00,meteohub,2013-01-23 15:21:00,
2013-01-23 07:26:00,48.4,36.7,30.00,NE,50,3.0,5.0,64,0.00,,,0.00,meteohub,2013-01-23 15:26:00,
2013-01-23 07:31:00,48.4,37.6,30.01,NE,47,3.0,5.0,66,0.00,,,0.00,meteohub,2013-01-23 15:31:00,
2013-01-23 07:36:00,48.0,37.2,30.02,NE,47,2.0,5.0,66,0.00,,,0.00,meteohub,2013-01-23 15:36:00,
2013-01-23 07:41:00,48.4,36.7,30.02,NE,46,1.0,5.0,64,0.00,,,0.00,meteohub,2013-01-23 15:41:00,
2013-01-23 07:46:00,48.6,35.8,30.01,NE,47,1.0,4.0,61,0.00,,,0.00,meteohub,2013-01-23 15:46:00,
2013-01-23 07:51:00,48.7,37.9,30.01,NE,47,3.0,4.0,66,0.00,,,0.00,meteohub,2013-01-23 15:51:00,
2013-01-23 07:56:00,48.0,37.9,30.01,NE,47,0.0,3.0,68,0.00,,,0.00,meteohub,2013-01-23 15:56:00,
2013-01-23 08:01:00,47.7,38.3,30.01,NE,47,0.0,3.0,70,0.00,,,0.00,meteohub,2013-01-23 16:01:00,
2013-01-23 08:06:00,47.3,39.4,30.02,NE,47,0.0,3.0,74,0.00,,,0.00,meteohub,2013-01-23 16:06:00,
2013-01-23 08:11:00,46.9,39.7,30.02,NE,47,1.0,1.0,76,0.00,,,0.00,meteohub,2013-01-23 16:11:00,
2013-01-23 08:16:00,46.9,39.0,30.02,NE,47,2.0,3.0,74,0.00,,,0.00,meteohub,2013-01-23 16:16:00,
2013-01-23 08:21:00,46.9,39.4,30.02,NE,47,0.0,3.0,75,0.00,,,0.00,meteohub,2013-01-23 16:21:00,
2013-01-23 08:26:00,46.9,39.0,30.03,NE,47,0.0,3.0,74,0.00,,,0.00,meteohub,2013-01-23 16:26:00,
2013-01-23 08:31:00,47.5,39.2,30.02,NE,47,0.0,2.0,73,0.00,,,0.00,meteohub,2013-01-23 16:31:00,
2013-01-23 08:36:00,47.7,39.4,30.02,NE,47,0.0,0.0,73,0.00,,,0.00,meteohub,2013-01-23 16:36:00,
2013-01-23 08:41:00,48.2,38.5,30.03,NE,47,0.0,0.0,69,0.00,,,0.00,meteohub,2013-01-23 16:41:00,
2013-01-23 08:46:00,48.4,39.0,30.04,NE,47,0.0,0.0,70,0.00,,,0.00,meteohub,2013-01-23 16:46:00,
2013-01-23 08:51:00,48.4,38.7,30.04,NE,47,1.0,1.0,69,0.00,,,0.00,meteohub,2013-01-23 16:51:00,
2013-01-23 08:56:00,48.7,37.6,30.04,NE,47,0.0,2.0,65,0.00,,,0.00,meteohub,2013-01-23 16:56:00,
2013-01-23 09:01:00,48.9,39.2,30.04,NE,47,0.0,2.0,69,0.00,,,0.00,meteohub,2013-01-23 17:01:00,
2013-01-23 09:06:00,48.9,39.9,30.04,NE,47,0.0,2.0,71,0.00,,,0.00,meteohub,2013-01-23 17:06:00,
2013-01-23 09:11:00,49.3,38.8,30.04,NE,47,2.0,2.0,67,0.00,,,0.00,meteohub,2013-01-23 17:11:00,
2013-01-23 09:16:00,49.5,38.1,30.04,NE,47,0.0,3.0,65,0.00,,,0.00,meteohub,2013-01-23 17:16:00,
2013-01-23 09:21:00,49.8,38.1,30.05,NE,47,2.0,3.0,64,0.00,,,0.00,meteohub,2013-01-23 17:21:00,
2013-01-23 09:26:00,50.2,36.9,30.05,NE,47,0.0,3.0,60,0.00,,,0.00,meteohub,2013-01-23 17:26:00,
2013-01-23 09:31:00,50.4,38.3,30.05,NE,46,2.0,3.0,63,0.00,,,0.00,meteohub,2013-01-23 17:31:00,
2013-01-23 09:36:00,50.4,37.4,30.05,NE,47,2.0,3.0,61,0.00,,,0.00,meteohub,2013-01-23 17:36:00,
2013-01-23 09:41:00,50.7,37.4,30.04,NE,47,1.0,3.0,60,0.00,,,0.00,meteohub,2013-01-23 17:41:00,
2013-01-23 09:46:00,50.7,37.4,30.04,NE,46,2.0,3.0,60,0.00,,,0.00,meteohub,2013-01-23 17:46:00,
2013-01-23 09:51:00,51.3,37.4,30.05,NE,47,4.0,4.0,59,0.00,,,0.00,meteohub,2013-01-23 17:51:00,
2013-01-23 09:56:00,51.6,36.9,30.05,NE,47,1.0,4.0,57,0.00,,,0.00,meteohub,2013-01-23 17:56:00,
2013-01-23 10:01:00,51.6,38.1,30.06,NE,47,1.0,4.0,60,0.00,,,0.00,meteohub,2013-01-23 18:01:00,
2013-01-23 10:06:00,51.4,37.9,30.05,NE,47,0.0,4.0,60,0.00,,,0.00,meteohub,2013-01-23 18:06:00,
2013-01-23 10:11:00,51.4,38.8,30.06,NE,47,0.0,2.0,62,0.00,,,0.00,meteohub,2013-01-23 18:11:00,
2013-01-23 10:16:00,51.6,38.7,30.06,NE,46,0.0,2.0,61,0.00,,,0.00,meteohub,2013-01-23 18:16:00,
2013-01-23 10:21:00,52.0,39.4,30.06,NE,47,1.0,2.0,62,0.00,,,0.00,meteohub,2013-01-23 18:21:00,
2013-01-23 10:26:00,52.0,39.0,30.06,NE,47,2.0,2.0,61,0.00,,,0.00,meteohub,2013-01-23 18:26:00,
2013-01-23 10:31:00,52.2,38.3,30.06,NE,46,0.0,4.0,59,0.00,,,0.00,meteohub,2013-01-23 18:31:00,
2013-01-23 10:36:00,52.3,38.8,30.06,NE,47,2.0,4.0,60,0.00,,,0.00,meteohub,2013-01-23 18:36:00,
2013-01-23 10:41:00,52.5,37.8,30.06,NE,47,0.0,4.0,57,0.00,,,0.00,meteohub,2013-01-23 18:41:00,
2013-01-23 10:46:00,53.6,38.3,30.06,WSW,254,1.0,4.0,56,0.00,,,0.00,meteohub,2013-01-23 18:46:00,
2013-01-23 10:51:00,53.8,37.0,30.06,West,259,1.0,4.0,53,0.00,,,0.00,meteohub,2013-01-23 18:51:00,
2013-01-23 10:56:00,54.0,38.7,30.06,West,259,0.0,4.0,56,0.00,,,0.00,meteohub,2013-01-23 18:56:00,
2013-01-23 11:01:00,54.0,36.7,30.06,West,259,1.0,4.0,52,0.00,,,0.00,meteohub,2013-01-23 19:01:00,
2013-01-23 11:06:00,54.1,35.4,30.06,West,259,0.0,4.0,49,0.00,,,0.00,meteohub,2013-01-23 19:06:00,
2013-01-23 11:11:00,54.1,36.3,30.06,West,259,0.0,2.0,51,0.00,,,0.00,meteohub,2013-01-23 19:11:00,
2013-01-23 11:16:00,54.0,34.7,30.06,West,259,1.0,3.0,48,0.00,,,0.00,meteohub,2013-01-23 19:16:00,
2013-01-23 11:21:00,54.0,35.2,30.07,West,259,3.0,3.0,49,0.00,,,0.00,meteohub,2013-01-23 19:21:00,
2013-01-23 11:26:00,54.0,38.7,30.07,West,259,1.0,4.0,56,0.00,,,0.00,meteohub,2013-01-23 19:26:00,
2013-01-23 11:31:00,53.4,36.7,30.07,West,260,0.0,4.0,53,0.00,,,0.00,meteohub,2013-01-23 19:31:00,
2013-01-23 11:36:00,53.1,40.5,30.06,West,260,1.0,4.0,62,0.00,,,0.00,meteohub,2013-01-23 19:36:00,
2013-01-23 11:41:00,52.7,40.5,30.06,West,261,0.0,3.0,63,0.00,,,0.00,meteohub,2013-01-23 19:41:00,
2013-01-23 11:46:00,51.8,38.8,30.06,West,261,0.0,3.0,61,0.00,,,0.00,meteohub,2013-01-23 19:46:00,
2013-01-23 11:51:00,51.1,40.1,30.05,West,261,2.0,3.0,66,0.01,,,0.01,meteohub,2013-01-23 19:51:00,
2013-01-23 11:56:00,50.7,42.4,30.05,West,261,0.0,3.0,73,0.01,,,0.01,meteohub,2013-01-23 19:56:00,
2013-01-23 12:01:00,50.2,42.6,30.06,NE,34,3.0,6.0,75,0.01,,,0.01,meteohub,2013-01-23 20:01:00,
2013-01-23 12:06:00,49.5,42.6,30.06,NE,45,3.0,6.0,77,0.01,,,0.01,meteohub,2013-01-23 20:06:00,
2013-01-23 12:11:00,48.9,42.1,30.06,NE,45,0.0,6.0,77,0.01,,,0.01,meteohub,2013-01-23 20:11:00,
2013-01-23 12:16:00,48.6,41.4,30.06,NE,45,2.0,6.0,76,0.02,,,0.01,meteohub,2013-01-23 20:16:00,
2013-01-23 12:22:00,48.6,42.3,30.06,NE,45,0.0,6.0,79,0.02,,,0.02,meteohub,2013-01-23 20:22:00,
2013-01-23 12:27:00,48.2,42.1,30.05,ENE,69,2.0,3.0,79,0.02,,,0.02,meteohub,2013-01-23 20:27:00,
2013-01-23 12:32:00,47.8,41.9,30.05,NE,53,3.0,3.0,80,0.02,,,0.02,meteohub,2013-01-23 20:32:00,
2013-01-23 12:37:00,47.7,42.1,30.05,NE,53,1.0,5.0,81,0.02,,,0.02,meteohub,2013-01-23 20:37:00,
2013-01-23 12:42:00,47.3,42.1,30.05,NE,53,2.0,5.0,82,0.02,,,0.02,meteohub,2013-01-23 20:42:00,
2013-01-23 12:47:00,47.1,41.9,30.05,NE,53,0.0,5.0,82,0.02,,,0.02,meteohub,2013-01-23 20:47:00,
2013-01-23 12:52:00,47.1,42.6,30.05,NE,53,0.0,3.0,84,0.02,,,0.03,meteohub,2013-01-23 20:52:00,
2013-01-23 12:57:00,47.1,42.6,30.05,NE,53,2.0,2.0,84,0.02,,,0.03,meteohub,2013-01-23 20:57:00,
2013-01-23 13:02:00,47.1,42.8,30.04,NE,51,3.0,4.0,85,0.02,,,0.03,meteohub,2013-01-23 21:02:00,
2013-01-23 13:07:00,47.1,42.3,30.04,NE,46,2.0,4.0,83,0.02,,,0.03,meteohub,2013-01-23 21:07:00,
2013-01-23 13:12:00,47.3,42.8,30.04,NE,48,2.0,4.0,84,0.02,,,0.03,meteohub,2013-01-23 21:12:00,
2013-01-23 13:17:00,47.3,43.0,30.04,NE,48,2.0,4.0,85,0.02,,,0.04,meteohub,2013-01-23 21:17:00,
2013-01-23 13:22:00,47.1,42.6,30.04,NE,48,3.0,4.0,84,0.02,,,0.04,meteohub,2013-01-23 21:22:00,
2013-01-23 13:27:00,46.9,43.0,30.04,NE,48,1.0,4.0,86,0.03,,,0.05,meteohub,2013-01-23 21:27:00,
2013-01-23 13:32:00,46.8,43.2,30.04,NE,48,1.0,3.0,87,0.04,,,0.06,meteohub,2013-01-23 21:32:00,
2013-01-23 13:37:00,46.6,43.2,30.04,NE,50,0.0,3.0,88,0.04,,,0.06,meteohub,2013-01-23 21:37:00,
2013-01-23 13:42:00,46.6,43.5,30.04,NE,50,1.0,3.0,89,0.05,,,0.07,meteohub,2013-01-23 21:42:00,
2013-01-23 13:47:00,46.6,43.5,30.04,NE,50,1.0,3.0,89,0.06,,,0.08,meteohub,2013-01-23 21:47:00,
2013-01-23 13:52:00,46.2,43.5,30.04,NE,50,2.0,3.0,90,0.05,,,0.08,meteohub,2013-01-23 21:52:00,
2013-01-23 13:57:00,46.2,43.5,30.04,NE,51,2.0,3.0,90,0.06,,,0.09,meteohub,2013-01-23 21:57:00,
2013-01-23 14:02:00,46.0,43.3,30.04,NNE,26,3.0,3.0,90,0.07,,,0.10,meteohub,2013-01-23 22:02:00,
2013-01-23 14:07:00,46.0,43.0,30.04,NE,36,5.0,6.0,89,0.07,,,0.10,meteohub,2013-01-23 22:07:00,
2013-01-23 14:12:00,46.0,43.3,30.04,NE,40,3.0,7.0,90,0.08,,,0.11,meteohub,2013-01-23 22:12:00,
2013-01-23 14:17:00,46.0,43.3,30.03,NE,44,0.0,7.0,90,0.07,,,0.11,meteohub,2013-01-23 22:17:00,
2013-01-23 14:22:00,46.0,43.5,30.03,NE,44,1.0,7.0,91,0.08,,,0.12,meteohub,2013-01-23 22:22:00,
2013-01-23 14:27:00,46.0,43.3,30.03,NE,39,0.0,5.0,90,0.07,,,0.12,meteohub,2013-01-23 22:27:00,
2013-01-23 14:32:00,46.2,43.7,30.04,NE,38,0.0,3.0,91,0.06,,,0.12,meteohub,2013-01-23 22:32:00,
2013-01-23 14:37:00,46.2,43.7,30.03,NE,38,1.0,3.0,91,0.06,,,0.12,meteohub,2013-01-23 22:37:00,
2013-01-23 14:42:00,46.4,43.9,30.03,NNE,19,1.0,5.0,91,0.05,,,0.12,meteohub,2013-01-23 22:42:00,
2013-01-23 14:47:00,46.6,44.1,30.04,SW,223,2.0,5.0,91,0.06,,,0.14,meteohub,2013-01-23 22:47:00,
2013-01-23 14:52:00,46.8,44.1,30.06,West,265,10.0,10.0,90,0.05,,,0.14,meteohub,2013-01-23 22:52:00,
2013-01-23 14:57:00,46.8,44.1,30.06,West,259,5.0,10.0,90,0.07,,,0.15,meteohub,2013-01-23 22:57:00,
2013-01-23 15:02:00,46.2,43.7,30.06,WSW,248,2.0,10.0,91,0.06,,,0.16,meteohub,2013-01-23 23:02:00,
2013-01-23 15:07:00,45.9,43.3,30.05,WSW,248,0.0,10.0,91,0.08,,,0.18,meteohub,2013-01-23 23:07:00,
2013-01-23 15:12:00,45.7,43.2,30.06,WSW,248,0.0,8.0,91,0.09,,,0.20,meteohub,2013-01-23 23:12:00,
2013-01-23 15:17:00,45.5,43.0,30.06,WSW,248,1.0,8.0,91,0.10,,,0.21,meteohub,2013-01-23 23:17:00,
2013-01-23 15:22:00,45.3,43.2,30.06,WSW,248,1.0,4.0,92,0.11,,,0.23,meteohub,2013-01-23 23:22:00,
2013-01-23 15:27:00,45.3,43.2,30.06,WSW,248,1.0,3.0,92,0.12,,,0.24,meteohub,2013-01-23 23:27:00,
2013-01-23 15:32:00,45.1,43.0,30.07,WSW,248,2.0,4.0,92,0.13,,,0.25,meteohub,2013-01-23 23:32:00,
2013-01-23 15:37:00,45.1,43.0,30.08,WSW,248,4.0,4.0,92,0.14,,,0.26,meteohub,2013-01-23 23:37:00,
2013-01-23 15:42:00,45.0,42.8,30.08,WSW,242,2.0,5.0,92,0.14,,,0.27,meteohub,2013-01-23 23:42:00,
2013-01-23 15:47:00,45.0,43.0,30.07,WSW,242,0.0,5.0,93,0.14,,,0.28,meteohub,2013-01-23 23:47:00,
2013-01-23 15:52:00,45.0,43.0,30.07,WSW,250,0.0,5.0,93,0.16,,,0.30,meteohub,2013-01-23 23:52:00,
2013-01-23 15:57:00,45.0,43.3,30.07,WSW,252,3.0,4.0,94,0.16,,,0.32,meteohub,2013-01-23 23:57:00,
2013-01-23 16:02:00,45.1,43.5,30.07,NNW,344,2.0,5.0,94,0.16,,,0.32,meteohub,2013-01-24 00:02:00,
2013-01-23 16:07:00,45.3,43.7,30.08,SSW,212,5.0,8.0,94,0.15,,,0.33,meteohub,2013-01-24 00:07:00,
2013-01-23 16:12:00,45.3,44.1,30.08,SSW,206,1.0,8.0,95,0.13,,,0.33,meteohub,2013-01-24 00:12:00,
2013-01-23 16:17:00,45.3,44.1,30.09,SW,234,0.0,8.0,95,0.13,,,0.34,meteohub,2013-01-24 00:17:00,
2013-01-23 16:22:00,45.3,44.1,30.09,West,273,3.0,7.0,95,0.12,,,0.35,meteohub,2013-01-24 00:22:00,
2013-01-23 16:27:00,45.3,44.1,30.08,East,93,1.0,6.0,95,0.12,,,0.36,meteohub,2013-01-24 00:27:00,
2013-01-23 16:32:00,45.1,43.9,30.08,SSW,206,2.0,6.0,95,0.12,,,0.36,meteohub,2013-01-24 00:32:00,
2013-01-23 16:37:00,45.1,43.9,30.08,SW,229,1.0,6.0,95,0.11,,,0.37,meteohub,2013-01-24 00:37:00,
2013-01-23 16:42:00,45.1,43.9,30.08,SW,229,1.0,6.0,95,0.11,,,0.38,meteohub,2013-01-24 00:42:00,
2013-01-23 16:47:00,45.1,43.9,30.08,SW,229,1.0,6.0,95,0.10,,,0.38,meteohub,2013-01-24 00:47:00,
2013-01-23 16:52:00,45.1,43.9,30.08,SW,229,0.0,3.0,95,0.08,,,0.38,meteohub,2013-01-24 00:52:00,
2013-01-23 16:57:00,45.1,44.1,30.08,SW,229,0.0,2.0,96,0.06,,,0.38,meteohub,2013-01-24 00:57:00,
2013-01-23 17:02:00,45.3,44.2,30.09,SW,229,0.0,2.0,96,0.06,,,0.38,meteohub,2013-01-24 01:02:00,
2013-01-23 17:07:00,45.3,44.2,30.09,SW,229,0.0,3.0,96,0.05,,,0.38,meteohub,2013-01-24 01:07:00,
2013-01-23 17:12:00,45.3,44.2,30.09,SW,229,2.0,3.0,96,0.06,,,0.39,meteohub,2013-01-24 01:12:00,
2013-01-23 17:17:00,45.3,44.2,30.09,SW,229,0.0,3.0,96,0.06,,,0.40,meteohub,2013-01-24 01:17:00,
2013-01-23 17:22:00,45.3,44.2,30.07,North,350,1.0,4.0,96,0.05,,,0.40,meteohub,2013-01-24 01:22:00,
2013-01-23 17:27:00,45.3,44.2,30.07,North,5,1.0,4.0,96,0.05,,,0.41,meteohub,2013-01-24 01:27:00,
2013-01-23 17:32:00,45.5,44.4,30.07,North,5,1.0,4.0,96,0.04,,,0.41,meteohub,2013-01-24 01:32:00,
2013-01-23 17:37:00,45.7,44.6,30.08,North,5,0.0,3.0,96,0.04,,,0.41,meteohub,2013-01-24 01:37:00,
2013-01-23 17:42:00,45.7,44.6,30.09,North,5,0.0,2.0,96,0.03,,,0.41,meteohub,2013-01-24 01:42:00,
2013-01-23 17:47:00,45.7,44.6,30.09,North,5,2.0,2.0,96,0.03,,,0.41,meteohub,2013-01-24 01:47:00,
2013-01-23 17:52:00,45.9,45.1,30.09,North,5,1.0,3.0,97,0.03,,,0.41,meteohub,2013-01-24 01:52:00,
2013-01-23 17:57:00,46.0,45.3,30.09,North,5,0.0,3.0,97,0.03,,,0.41,meteohub,2013-01-24 01:57:00,
2013-01-23 18:02:00,46.2,45.5,30.09,North,5,2.0,3.0,97,0.03,,,0.41,meteohub,2013-01-24 02:02:00,
2013-01-23 18:07:00,46.4,45.7,30.10,North,5,0.0,2.0,97,0.03,,,0.41,meteohub,2013-01-24 02:07:00,
2013-01-23 18:12:00,46.6,45.9,30.10,North,5,0.0,2.0,97,0.02,,,0.41,meteohub,2013-01-24 02:12:00,
2013-01-23 18:17:00,46.8,46.0,30.10,North,5,0.0,2.0,97,0.01,,,0.41,meteohub,2013-01-24 02:17:00,
2013-01-23 18:22:00,46.9,46.2,30.09,North,5,1.0,2.0,97,0.02,,,0.42,meteohub,2013-01-24 02:22:00,
2013-01-23 18:27:00,47.1,46.4,30.10,North,5,0.0,2.0,97,0.01,,,0.42,meteohub,2013-01-24 02:27:00,
2013-01-23 18:32:00,47.1,46.4,30.10,North,5,1.0,3.0,97,0.01,,,0.42,meteohub,2013-01-24 02:32:00,
2013-01-23 18:37:00,47.3,46.6,30.10,North,5,0.0,3.0,97,0.01,,,0.42,meteohub,2013-01-24 02:37:00,
2013-01-23 18:42:00,47.5,46.9,30.10,North,5,1.0,3.0,98,0.01,,,0.42,meteohub,2013-01-24 02:42:00,
2013-01-23 18:47:00,47.5,46.9,30.10,North,5,0.0,2.0,98,0.01,,,0.42,meteohub,2013-01-24 02:47:00,
2013-01-23 18:52:00,47.5,46.9,30.10,North,5,0.0,2.0,98,0.01,,,0.42,meteohub,2013-01-24 02:52:00,
2013-01-23 18:57:00,47.3,46.8,30.10,North,5,2.0,3.0,98,0.01,,,0.42,meteohub,2013-01-24 02:57:00,
2013-01-23 19:02:00,46.9,46.2,30.09,NE,43,4.0,4.0,97,0.01,,,0.42,meteohub,2013-01-24 03:02:00,
2013-01-23 19:07:00,46.8,46.0,30.09,NE,43,3.0,4.0,97,0.01,,,0.42,meteohub,2013-01-24 03:07:00,
2013-01-23 19:12:00,46.8,46.2,30.09,NE,43,3.0,4.0,98,0.02,,,0.42,meteohub,2013-01-24 03:12:00,
2013-01-23 19:17:00,46.9,46.4,30.09,NE,43,3.0,5.0,98,0.02,,,0.43,meteohub,2013-01-24 03:17:00,
2013-01-23 19:22:00,46.9,46.4,30.10,NE,43,3.0,5.0,98,0.01,,,0.43,meteohub,2013-01-24 03:22:00,
2013-01-23 19:27:00,46.9,46.4,30.10,NE,46,4.0,5.0,98,0.01,,,0.43,meteohub,2013-01-24 03:27:00,
2013-01-23 19:32:00,46.8,46.2,30.10,NE,46,3.0,5.0,98,0.01,,,0.43,meteohub,2013-01-24 03:32:00,
2013-01-23 19:37:00,46.6,46.0,30.10,NE,46,3.0,5.0,98,0.01,,,0.43,meteohub,2013-01-24 03:37:00,
2013-01-23 19:42:00,46.4,45.9,30.11,NE,48,3.0,5.0,98,0.01,,,0.43,meteohub,2013-01-24 03:42:00,
2013-01-23 19:47:00,46.2,45.7,30.11,NE,48,3.0,5.0,98,0.01,,,0.43,meteohub,2013-01-24 03:47:00,
2013-01-23 19:52:00,46.2,45.7,30.11,NE,49,4.0,5.0,98,0.02,,,0.44,meteohub,2013-01-24 03:52:00,
2013-01-23 19:57:00,46.0,45.5,30.11,NE,50,5.0,6.0,98,0.02,,,0.44,meteohub,2013-01-24 03:57:00,
2013-01-23 20:02:00,45.9,45.3,30.11,NE,54,5.0,6.0,98,0.02,,,0.44,meteohub,2013-01-24 04:02:00,
2013-01-23 20:07:00,45.7,45.1,30.11,NE,55,5.0,6.0,98,0.02,,,0.44,meteohub,2013-01-24 04:07:00,
2013-01-23 20:13:00,45.7,45.1,30.10,NE,53,4.0,6.0,98,0.01,,,0.44,meteohub,2013-01-24 04:13:00,
2013-01-23 20:18:00,45.7,45.1,30.10,NE,53,5.0,6.0,98,0.01,,,0.44,meteohub,2013-01-24 04:18:00,
2013-01-23 20:23:00,45.9,45.3,30.10,NE,48,4.0,6.0,98,0.01,,,0.44,meteohub,2013-01-24 04:23:00,
2013-01-23 20:28:00,46.0,45.5,30.10,ENE,58,4.0,6.0,98,0.01,,,0.44,meteohub,2013-01-24 04:28:00,
2013-01-23 20:33:00,46.0,45.5,30.10,NE,37,5.0,7.0,98,0.01,,,0.44,meteohub,2013-01-24 04:33:00,
2013-01-23 20:38:00,46.2,45.7,30.10,NNE,25,4.0,7.0,98,0.01,,,0.44,meteohub,2013-01-24 04:38:00,
2013-01-23 20:43:00,46.6,46.0,30.10,NE,50,5.0,7.0,98,0.01,,,0.44,meteohub,2013-01-24 04:43:00,
2013-01-23 20:48:00,46.6,46.4,30.10,NE,51,4.0,7.0,99,0.01,,,0.44,meteohub,2013-01-24 04:48:00,
2013-01-23 20:53:00,46.8,46.6,30.10,NE,51,2.0,7.0,99,0.00,,,0.44,meteohub,2013-01-24 04:53:00,
2013-01-23 20:58:00,46.9,46.8,30.11,NE,51,2.0,7.0,99,0.00,,,0.44,meteohub,2013-01-24 04:58:00,
2013-01-23 21:00:00,47.1,46.9,30.11,NE,51,2.0,7.0,99,0.00,,,0.44,meteohub,2013-01-24 05:00:00,
2013-01-23 21:01:00,47.1,46.6,30.11,NE,51,2.0,4.0,98,0.00,,,0.44,meteohub,2013-01-24 05:01:00,
2013-01-23 21:03:00,47.1,46.9,30.11,NE,51,3.0,4.0,99,0.00,,,0.44,meteohub,2013-01-24 05:03:00,
2013-01-23 21:08:00,47.3,47.1,30.12,NE,51,1.0,5.0,99,0.00,,,0.44,meteohub,2013-01-24 05:08:00,
2013-01-23 21:13:00,47.5,47.3,30.11,NE,51,3.0,5.0,99,0.00,,,0.44,meteohub,2013-01-24 05:13:00,
2013-01-23 21:18:00,47.3,47.1,30.11,NE,51,2.0,5.0,99,0.00,,,0.44,meteohub,2013-01-24 05:18:00,
2013-01-23 21:23:00,47.5,47.3,30.11,NE,51,2.0,4.0,99,0.01,,,0.45,meteohub,2013-01-24 05:23:00,
2013-01-23 21:28:00,47.5,47.3,30.11,NE,51,3.0,3.0,99,0.01,,,0.45,meteohub,2013-01-24 05:28:00,
2013-01-23 21:33:00,47.5,47.3,30.11,NE,51,3.0,5.0,99,0.01,,,0.45,meteohub,2013-01-24 05:33:00,
2013-01-23 21:38:00,47.7,47.5,30.12,NE,51,3.0,5.0,99,0.01,,,0.45,meteohub,2013-01-24 05:38:00,
2013-01-23 21:43:00,47.7,47.5,30.12,NE,51,0.0,5.0,99,0.01,,,0.45,meteohub,2013-01-24 05:43:00,
2013-01-23 21:48:00,47.7,47.1,30.12,NE,51,1.0,4.0,98,0.01,,,0.45,meteohub,2013-01-24 05:48:00,
2013-01-23 21:53:00,47.5,46.9,30.12,NE,51,0.0,4.0,98,0.02,,,0.46,meteohub,2013-01-24 05:53:00,
2013-01-23 21:58:00,47.7,47.1,30.12,NE,51,2.0,4.0,98,0.02,,,0.46,meteohub,2013-01-24 05:58:00,
2013-01-23 22:03:00,47.5,46.9,30.12,NE,51,2.0,4.0,98,0.02,,,0.46,meteohub,2013-01-24 06:03:00,
2013-01-23 22:08:00,47.5,46.9,30.12,NE,51,3.0,4.0,98,0.02,,,0.46,meteohub,2013-01-24 06:08:00,
2013-01-23 22:13:00,47.5,46.9,30.12,NE,51,2.0,4.0,98,0.03,,,0.47,meteohub,2013-01-24 06:13:00,
2013-01-23 22:18:00,47.3,47.1,30.12,NE,51,4.0,4.0,99,0.03,,,0.47,meteohub,2013-01-24 06:18:00,
2013-01-23 22:23:00,47.5,47.3,30.12,NE,51,4.0,5.0,99,0.02,,,0.47,meteohub,2013-01-24 06:23:00,
2013-01-23 22:28:00,47.8,47.7,30.12,NE,51,5.0,5.0,99,0.03,,,0.48,meteohub,2013-01-24 06:28:00,
2013-01-23 22:33:00,47.8,47.7,30.11,ENE,61,7.0,7.0,99,0.03,,,0.48,meteohub,2013-01-24 06:33:00,
2013-01-23 22:38:00,47.5,46.9,30.11,NE,40,5.0,8.0,98,0.03,,,0.48,meteohub,2013-01-24 06:38:00,
2013-01-23 22:43:00,47.5,46.9,30.11,NE,53,7.0,9.0,98,0.03,,,0.48,meteohub,2013-01-24 06:43:00,
2013-01-23 22:48:00,47.3,47.1,30.11,NE,53,6.0,9.0,99,0.03,,,0.48,meteohub,2013-01-24 06:48:00,
2013-01-23 22:53:00,47.3,47.1,30.11,NE,53,4.0,9.0,99,0.02,,,0.48,meteohub,2013-01-24 06:53:00,
2013-01-23 22:58:00,47.5,47.3,30.11,NNE,30,6.0,9.0,99,0.03,,,0.49,meteohub,2013-01-24 06:58:00,
2013-01-23 23:03:00,47.3,47.1,30.11,NE,55,2.0,9.0,99,0.03,,,0.49,meteohub,2013-01-24 07:03:00,
2013-01-23 23:08:00,47.3,47.1,30.11,ENE,58,5.0,9.0,99,0.02,,,0.49,meteohub,2013-01-24 07:08:00,
2013-01-23 23:13:00,47.1,46.9,30.11,ENE,57,9.0,9.0,99,0.02,,,0.49,meteohub,2013-01-24 07:13:00,
2013-01-23 23:18:00,46.8,46.2,30.12,NE,37,3.0,10.0,98,0.03,,,0.50,meteohub,2013-01-24 07:18:00,
2013-01-23 23:23:00,46.6,46.0,30.12,NE,50,6.0,10.0,98,0.03,,,0.50,meteohub,2013-01-24 07:23:00,
2013-01-23 23:28:00,46.4,45.9,30.12,NE,49,3.0,10.0,98,0.02,,,0.50,meteohub,2013-01-24 07:28:00,
2013-01-23 23:33:00,46.4,45.9,30.12,ENE,67,1.0,10.0,98,0.02,,,0.50,meteohub,2013-01-24 07:33:00,
2013-01-23 23:38:00,46.2,45.7,30.12,ENE,67,4.0,8.0,98,0.02,,,0.50,meteohub,2013-01-24 07:38:00,
2013-01-23 23:43:00,46.4,45.9,30.12,NE,40,5.0,7.0,98,0.02,,,0.50,meteohub,2013-01-24 07:43:00,
2013-01-23 23:48:00,46.6,46.4,30.11,ENE,59,7.0,10.0,99,0.02,,,0.50,meteohub,2013-01-24 07:48:00,
2013-01-23 23:53:00,46.8,46.6,30.11,NE,49,7.0,12.0,99,0.02,,,0.50,meteohub,2013-01-24 07:53:00,
2013-01-23 23:58:00,46.9,46.8,30.11,NE,40,8.0,12.0,99,0.02,,,0.51,meteohub,2013-01-24 07:58:00,